Weather History for Peachtree City, GA

Change the Weather History Date:

Sunday, December 8, 2013

  Actual Average Record
Temperature  
Mean Temperature 47 °F 46 °F  
Max Temperature 49 °F 58 °F 73 °F (2001)
Min Temperature 44 °F 34 °F 18 °F (2006)
Degree Days  
Heating Degree Days 18 19  
Month to date heating degree days 77 145  
Since 1 July heating degree days 634 687  
Cooling Degree Days 0 0  
Month to date cooling degree days 8 0  
Year to date cooling degree days 1559 1653  
Moisture  
Dew Point 46 °F    
Average Humidity 96    
Maximum Humidity 100    
Minimum Humidity 92    
Precipitation  
Precipitation 0.07 in 0.14 in 0.34 in (1997)
Month to date precipitation 1.13 1.29  
Snow  
Snow 0.00 in - - ()
Month to date snowfall 0.0  
Since 1 July snowfall 0.0  
Snow Depth 0.00 in    
Sea Level Pressure  
Sea Level Pressure 30.23 in    
Wind  
Wind Speed 7 mph (East)    
Max Wind Speed 14 mph    
Max Gust Speed 19 mph    
Visibility 3 miles    
Events Rain    
T = Trace of Precipitation, MM = Missing Value Source: NWS Daily Summary

Daily Weather History Graph

Daily Weather History Graph

Search for Another Location

Airport:

Trip Planner

Search our weather history database for the weather conditions in past years. The results will help you decide how hot, cold, wet, or windy it might be!

Date:

Astronomy

Dec. 08, 2013 Rise Set
Actual Time 7:29 AM EST 5:30 PM EST
Civil Twilight 7:02 AM EST 5:58 PM EST
Nautical Twilight 6:31 AM EST 6:28 PM EST
Astronomical Twilight 6:01 AM EST 6:59 PM EST
Moon 12:03 PM EST (12/8) No Moon Set
Length of Visible Light 10h 55m
Length of Day
10h 00m
Waxing Crescent, 40% of the Moon is Illuminated
Dec 8
Waxing Crescent
Dec 9
First Quarter
Dec 17
Full
Dec 25
Last Quarter
Jan 1
New

Hourly Weather History & Observations

Time (EST) Temp. Windchill Dew Point Humidity Pressure Visibility Wind Dir Wind Speed Gust Speed Precip Events Conditions
12:33 AM 45.0 °F - 44.1 °F 97% 30.27 in 2.5 mi Calm Calm - N/A   Overcast
12:46 AM 45.0 °F - 44.1 °F 97% 30.27 in 2.0 mi Calm Calm - 0.00 in Rain Light Rain
12:53 AM 45.0 °F - 45.0 °F 100% 30.28 in 3.0 mi Calm Calm - 0.00 in Rain Light Rain
1:32 AM 46.0 °F - 45.0 °F 96% 30.26 in 2.5 mi Calm Calm - 0.00 in   Overcast
1:50 AM 46.4 °F - 44.6 °F 93% 30.25 in 1.5 mi Calm Calm - 0.00 in   Overcast
1:53 AM 46.0 °F - 45.0 °F 96% 30.26 in 1.5 mi Calm Calm - 0.00 in   Overcast
2:37 AM 48.0 °F - 46.9 °F 96% 30.24 in 2.0 mi ESE 5.8 mph - N/A   Overcast
2:53 AM 48.9 °F - 48.0 °F 97% 30.25 in 3.0 mi East 8.1 mph - N/A   Overcast
3:16 AM 48.9 °F - 48.0 °F 97% 30.24 in 3.0 mi East 9.2 mph - N/A   Overcast
3:53 AM 48.9 °F - 48.0 °F 97% 30.26 in 3.0 mi East 6.9 mph - N/A   Overcast
4:04 AM 48.9 °F - 48.0 °F 97% 30.25 in 2.0 mi East 6.9 mph - N/A   Overcast
4:27 AM 48.9 °F - 46.9 °F 93% 30.24 in 4.0 mi East 8.1 mph - 0.01 in Rain Light Rain
4:53 AM 48.0 °F - 46.9 °F 96% 30.25 in 5.0 mi East 5.8 mph - 0.01 in Rain Light Rain
5:53 AM 48.0 °F - 46.0 °F 93% 30.26 in 6.0 mi East 6.9 mph - 0.01 in   Overcast
6:53 AM 46.9 °F - 46.0 °F 97% 30.27 in 3.0 mi ESE 6.9 mph - 0.00 in Rain Light Rain
7:53 AM 46.9 °F - 46.0 °F 97% 30.28 in 2.5 mi East 10.4 mph - 0.01 in Rain Light Rain
8:21 AM 46.9 °F - 46.0 °F 97% 30.27 in 1.8 mi ESE 9.2 mph - 0.00 in   Overcast
8:28 AM 46.9 °F - 46.0 °F 97% 30.27 in 2.0 mi ESE 8.1 mph - 0.00 in   Overcast
8:39 AM 46.9 °F - 46.0 °F 97% 30.25 in 1.5 mi East 11.5 mph - 0.00 in   Overcast
8:53 AM 46.9 °F - 46.0 °F 97% 30.27 in 1.2 mi ESE 9.2 mph - 0.00 in   Overcast
9:09 AM 46.9 °F - 46.0 °F 97% 30.25 in 2.0 mi ESE 11.5 mph - N/A   Overcast
9:46 AM 46.9 °F - 46.0 °F 97% 30.28 in 1.2 mi East 10.4 mph - N/A   Overcast
9:53 AM 46.9 °F - 46.0 °F 97% 30.30 in 1.2 mi East 6.9 mph - 0.00 in Rain Light Rain
10:05 AM 46.9 °F - 46.9 °F 100% 30.28 in 1.8 mi ESE 8.1 mph - 0.00 in Rain Light Rain
10:39 AM 46.9 °F - 46.9 °F 100% 30.28 in 1.2 mi East 10.4 mph - 0.01 in   Overcast
10:53 AM 46.9 °F - 46.9 °F 100% 30.30 in 1.5 mi East 8.1 mph - 0.01 in   Overcast
10:58 AM 46.9 °F - 46.9 °F 100% 30.28 in 2.0 mi East 9.2 mph - N/A   Overcast
11:49 AM 48.2 °F - 46.4 °F 93% 30.25 in 4.0 mi East 8.1 mph - N/A   Overcast
11:53 AM 48.0 °F - 46.9 °F 96% 30.26 in 4.0 mi East 8.1 mph - N/A   Overcast
12:47 PM 46.4 °F 42.4 °F 46.4 °F 100% 30.21 in 1.8 mi ESE 8.1 mph - 0.01 in Rain Light Rain
12:53 PM 46.9 °F - 46.0 °F 97% 30.22 in 1.0 mi ESE 11.5 mph 19.6 mph 0.02 in Rain Rain
1:07 PM 46.9 °F - 46.0 °F 97% 30.20 in 3.0 mi ESE 9.2 mph - 0.00 in Rain Light Rain
1:28 PM 46.9 °F - 46.0 °F 97% 30.19 in 1.8 mi East 9.2 mph - 0.01 in Rain Light Rain
1:34 PM 48.0 °F - 46.0 °F 93% 30.19 in 3.0 mi East 8.1 mph - 0.01 in Rain Light Rain
1:53 PM 46.9 °F - 46.0 °F 97% 30.20 in 3.0 mi East 9.2 mph - 0.01 in   Overcast
2:13 PM 46.9 °F - 46.9 °F 100% 30.18 in 2.5 mi East 9.2 mph - N/A   Overcast
2:21 PM 48.0 °F - 46.9 °F 96% 30.17 in 3.0 mi East 10.4 mph - N/A   Overcast
2:41 PM 48.0 °F - 46.9 °F 96% 30.18 in 4.0 mi East 6.9 mph - N/A   Overcast
2:53 PM 48.0 °F - 46.9 °F 96% 30.18 in 3.0 mi ESE 8.1 mph - N/A   Overcast
3:01 PM 48.0 °F - 46.9 °F 96% 30.17 in 2.5 mi East 6.9 mph - N/A   Overcast
3:21 PM 48.0 °F - 46.9 °F 96% 30.18 in 1.8 mi East 6.9 mph - N/A   Overcast
3:53 PM 48.0 °F - 46.9 °F 96% 30.20 in 1.0 mi ESE 6.9 mph - N/A   Overcast
4:38 PM 48.0 °F - 46.9 °F 96% 30.19 in 2.0 mi East 9.2 mph - N/A   Overcast
4:53 PM 46.9 °F - 46.9 °F 100% 30.20 in 2.5 mi East 6.9 mph - N/A   Overcast
5:07 PM 46.9 °F - 46.0 °F 97% 30.20 in 3.0 mi East 10.4 mph - N/A   Overcast
5:53 PM 46.9 °F - 46.0 °F 97% 30.20 in 5.0 mi East 11.5 mph - N/A   Overcast
6:01 PM 46.9 °F - 46.0 °F 97% 30.19 in 4.0 mi East 8.1 mph 17.3 mph N/A   Overcast
6:16 PM 46.9 °F - 46.0 °F 97% 30.19 in 3.0 mi East 5.8 mph - N/A   Overcast
6:28 PM 46.9 °F - 46.0 °F 97% 30.19 in 2.5 mi East 8.1 mph - N/A   Overcast
6:53 PM 46.0 °F 42.5 °F 46.0 °F 100% 30.22 in 2.0 mi East 6.9 mph - N/A   Overcast
7:51 PM 46.4 °F 43.5 °F 44.6 °F 93% 30.22 in 1.8 mi East 5.8 mph - N/A   Overcast
7:53 PM 46.0 °F 41.9 °F 45.0 °F 96% 30.24 in 1.8 mi East 8.1 mph - N/A   Overcast
8:19 PM 46.0 °F 41.9 °F 45.0 °F 96% 30.21 in 2.0 mi East 8.1 mph - 0.00 in Rain Light Rain
8:42 PM 46.0 °F 42.5 °F 45.0 °F 96% 30.21 in 4.0 mi East 6.9 mph - 0.00 in   Overcast
8:53 PM 46.0 °F 42.5 °F 45.0 °F 96% 30.22 in 10.0 mi East 6.9 mph - 0.00 in   Overcast
9:05 PM 46.0 °F 41.4 °F 45.0 °F 96% 30.21 in 10.0 mi East 9.2 mph - N/A   Overcast
9:53 PM 45.0 °F 40.1 °F 44.1 °F 97% 30.21 in 9.0 mi East 9.2 mph - N/A   Overcast
10:34 PM 45.0 °F 42.6 °F 44.1 °F 97% 30.20 in 3.0 mi East 4.6 mph - N/A   Overcast
10:53 PM 45.0 °F 41.2 °F 44.1 °F 97% 30.22 in 3.0 mi East 6.9 mph - N/A   Overcast
11:17 PM 45.0 °F 40.1 °F 44.1 °F 97% 30.20 in 2.5 mi East 9.2 mph - N/A   Overcast
11:53 PM 44.1 °F 39.5 °F 44.1 °F 100% 30.20 in 1.8 mi East 8.1 mph - N/A   Overcast